Probability
0 0 1 3 4 5 6 5 3 2 1 0 0 0 0 0 0 0 1 2 1 0 0 0 0 0 0 0 0 0 0 0 0 0 0 0 0 0 0 0 0 0 0
0 0 1 4 6 5 4 3 2 1 0 0 0 0 0 0 0 0 1 1 1 0 0 0 0 0 0 0 0 0 0 0 0 0 0 0 0 0 0 0 0 0 0
0 0 1 4 6 5 4 2 1 1 1 0 0 0 0 0 1 1 1 0 0 0 0 0 0 0 0 0 0 0 0 0 0 0 0 0 0 0 0 0 0 0 0
0 0 1 3 4 4 3 2 1 1 1 1 1 0 0 0 1 1 1 0 1 1 1 1 0 0 0 0 0 0 0 0 0 0 0 0 0 0 0 0 0 0 0
0 0 1 2 3 3 3 2 1 1 1 1 1 0 0 0 0 1 2 2 2 2 2 2 1 0 0 0 0 0 0 0 0 0 0 0 0 0 0 0 0 0 0
0 0 1 2 3 3 3 3 1 1 0 0 0 0 0 0 0 1 2 3 3 3 3 3 1 0 0 0 0 0 0 0 0 0 0 0 0 0 0 0 0 0 0
1 0 1 2 2 2 3 3 2 1 0 0 0 0 0 0 0 1 2 3 3 3 4 3 2 1 1 0 0 0 0 0 0 0 0 0 0 0 0 0 0 0 0
2 1 0 1 1 1 1 3 2 1 0 0 0 0 0 0 0 0 1 3 3 3 3 3 2 2 1 0 0 0 0 0 0 0 0 0 0 0 0 0 0 0 0
3 2 1 0 0 0 1 2 2 1 0 0 0 0 0 0 0 0 1 2 3 3 3 3 2 1 1 0 0 0 0 0 0 0 0 0 0 0 0 0 0 0 0
3 2 2 1 0 0 0 1 1 0 0 0 0 0 0 0 0 0 0 1 2 2 2 2 1 0 0 0 0 0 0 0 0 0 0 0 0 0 0 0 0 0 0
3 2 2 1 0 0 0 0 0 0 0 0 0 0 0 0 0 0 0 0 1 1 1 1 1 0 0 0 0 0 0 0 0 0 0 0 0 0 0 0 0 0 0
2 2 2 2 1 0 0 0 0 0 0 0 0 0 0 0 0 0 0 0 0 0 0 0 0 0 0 0 0 0 0 0 0 0 0 0 0 0 0 0 0 0 0
2 2 2 2 1 0 0 0 0 0 0 0 0 0 0 0 0 0 0 0 0 0 0 0 0 0 0 0 0 0 0 0 0 0 0 0 0 0 0 0 0 0 0
2 2 2 2 1 0 0 0 0 0 0 0 0 0 0 0 0 0 0 0 0 0 0 0 0 0 0 0 0 0 0 0 0 0 0 0 0 0 0 1 2 1 0
1 1 3 3 2 1 0 0 0 0 0 0 0 0 0 0 0 0 0 0 0 0 0 0 0 0 0 0 0 0 0 0 0 0 0 0 0 0 1 2 3 2 1
0 1 2 3 3 1 0 0 0 0 0 0 0 0 0 0 0 0 0 0 0 0 0 0 0 0 0 0 0 0 0 0 0 0 0 0 0 0 1 2 3 2 1
0 1 2 3 3 2 1 0 0 0 0 0 0 0 0 0 0 0 0 0 0 0 0 0 0 0 0 0 0 0 0 0 0 0 0 0 0 0 0 1 2 1 0
0 0 1 3 3 2 1 0 0 0 0 0 0 0 0 0 0 0 0 0 0 0 0 0 0 0 0 0 0 0 0 0 0 0 0 0 0 0 0 0 0 0 0
0 0 1 2 3 2 1 0 0 0 0 0 0 0 0 0 0 0 0 0 0 0 0 0 0 0 0 0 0 0 0 0 0 0 0 0 0 0 0 0 0 0 0
0 0 0 1 3 2 1 0 0 0 0 0 0 0 0 0 0 0 0 0 0 0 0 0 0 0 0 0 0 0 0 0 0 0 0 0 0 0 0 0 0 0 0
1 1 0 1 2 2 1 0 0 0 0 0 0 0 0 0 0 0 0 0 0 0 0 0 0 0 0 0 0 0 0 0 0 0 0 0 0 0 0 0 0 0 0
0 0 0 1 2 2 1 0 0 0 0 0 0 0 0 0 0 0 0 0 0 0 0 0 0 0 0 0 0 0 0 0 0 0 0 0 0 0 0 0 0 0 0
0 0 0 0 1 2 1 0 0 0 0 0 0 0 0 0 0 0 0 0 0 0 0 0 0 0 0 0 0 0 0 0 0 0 0 0 0 0 0 0 0 0 0
0 0 0 0 1 1 1 0 0 0 0 0 0 0 0 0 0 0 0 0 0 0 0 0 0 0 0 0 0 0 0 0 0 0 0 0 0 0 0 0 0 0 0
0 0 0 0 0 0 0 0 0 0 0 0 0 0 0 0 0 0 0 0 0 0 0 0 0 0 0 0 0 0 0 0 0 0 0 0 0 0 0 0 0 0 0
0 0 0 0 0 0 0 0 0 0 0 0 0 0 0 0 0 0 0 0 0 0 0 0 0 0 0 0 0 0 0 0 0 0 0 0 0 0 0 0 0 0 0
Wind_Speed
5 7 5 4 5 6 6 7 7 7 7 7 7 6 6 6 6 6 6 6 6 7 7 7 8 8 9 10 10 10 10 10 10 10 10 10 11 11 11 10 9 8 12
6 7 6 4 5 6 6 6 6 6 7 7 6 6 5 5 5 6 5 5 5 6 7 7 8 8 9 9 9 9 9 9 8 8 8 8 9 10 10 10 9 7 11
6 7 6 5 5 6 6 6 6 6 6 6 6 5 5 5 5 5 5 5 5 6 7 8 8 8 8 8 8 8 8 7 7 6 5 3 5 9 9 9 9 9 9
5 6 6 5 5 6 6 6 6 6 6 5 5 5 5 5 5 5 5 5 5 6 7 7 7 7 7 7 7 7 6 6 5 4 2 3 4 8 8 8 8 8 8
5 5 6 6 6 6 6 6 5 5 5 5 4 4 4 5 5 5 4 4 5 6 6 6 7 6 6 7 6 6 5 4 4 3 2 3 4 7 8 7 7 7 7
4 5 6 6 6 6 6 6 5 5 5 5 4 4 3 4 4 4 5 5 5 5 5 5 6 6 6 6 5 4 3 3 3 1 2 3 3 7 7 7 7 7 7
4 5 6 6 5 5 5 6 5 5 5 4 4 4 3 4 4 4 5 5 6 5 5 5 5 5 5 5 4 3 3 3 2 2 3 3 4 7 7 6 6 6 6
4 4 5 5 5 4 5 5 5 4 4 4 4 4 4 4 4 4 5 5 5 5 4 4 4 4 4 4 4 3 3 3 2 2 2 3 5 7 6 5 5 5 4
4 4 4 3 3 4 4 5 5 4 4 4 4 4 4 4 4 4 4 4 4 4 4 4 4 4 4 3 3 3 3 3 2 1 2 2 4 5 5 4 4 4 4
3 3 3 3 2 2 3 4 5 5 4 4 4 4 4 4 3 4 3 3 4 4 4 3 3 3 3 3 2 2 2 2 1 1 1 2 4 4 3 3 3 3 3
2 2 2 2 2 2 2 4 4 4 4 4 4 4 3 1 2 2 2 3 4 4 3 3 3 2 2 2 1 1 1 0 0 1 1 3 3 2 2 2 2 2 2
2 2 2 1 2 2 2 3 2 2 2 2 2 2 1 1 2 2 3 4 4 3 3 3 2 1 1 0 0 0 0 0 0 1 1 3 2 1 1 0 0 1 1
2 1 1 1 2 1 2 2 2 1 1 1 1 2 2 1 1 2 1 2 2 2 1 2 1 1 0 0 0 0 0 0 0 1 1 3 2 1 1 2 2 1 2
2 2 1 1 1 1 2 2 2 2 1 1 1 2 1 1 1 1 1 1 1 1 1 1 0 1 1 1 1 0 0 0 0 1 1 2 2 2 3 3 3 2 2
2 2 2 1 1 1 2 1 2 2 2 1 1 1 2 1 1 1 1 1 1 1 1 1 1 0 0 1 1 1 1 1 1 1 1 3 2 3 4 4 3 3 3
1 2 2 2 1 1 1 1 1 2 2 2 1 1 1 1 1 1 1 1 1 1 1 1 1 1 0 0 1 1 1 1 1 1 1 2 3 3 4 5 4 3 3
1 1 2 2 1 1 1 1 1 1 2 2 1 1 1 1 2 1 1 1 1 0 1 0 0 0 0 0 1 1 1 1 1 1 1 1 2 3 4 5 4 4 3
1 2 2 2 1 1 1 1 0 1 1 2 2 2 2 1 2 1 1 1 1 1 1 0 0 1 0 0 1 1 1 1 1 2 1 1 1 1 2 3 3 3 4
2 2 2 2 1 1 0 1 1 1 1 1 1 1 1 2 2 1 1 1 1 1 1 0 1 0 0 1 1 1 1 1 2 1 1 1 1 1 1 1 2 3 3
1 2 2 2 1 1 1 0 1 1 1 1 1 1 2 2 2 1 1 1 1 1 1 0 0 1 0 1 1 1 1 2 1 1 1 1 1 1 1 1 1 2 3
1 1 2 2 1 1 1 0 0 1 1 0 0 1 1 2 2 2 1 1 1 1 1 1 0 0 1 1 1 2 2 2 1 1 1 1 1 1 1 1 1 1 2
0 1 1 2 1 1 1 0 0 1 1 1 0 1 1 2 2 1 2 2 2 1 1 1 1 0 0 0 0 1 1 2 2 1 1 1 1 1 1 1 1 1 1
1 1 1 1 1 1 1 1 1 0 0 0 0 0 1 1 2 1 2 1 1 1 2 2 1 1 1 1 0 1 1 2 2 2 2 1 1 1 1 1 2 2 2
1 0 1 1 1 1 2 1 1 1 1 1 1 1 1 1 1 1 1 1 2 1 2 2 1 1 1 1 1 1 1 1 1 2 2 1 2 2 2 2 2 2 2
2 1 1 2 1 1 1 1 1 1 0 0 0 1 1 1 1 2 1 1 2 2 2 2 2 1 1 1 1 1 2 2 1 1 3 3 3 3 2 3 2 2 2
2 2 1 1 1 1 1 1 1 1 1 1 1 1 1 1 1 1 1 2 2 2 2 2 2 3 2 1 1 1 1 1 2 1 2 3 3 3 3 3 3 2 2
Wind_Direction
103 117 121 118 110 103 99 103 108 108 105 101 96 99 103 101 96 95 93 88 87 84 82 85 86 85 82 78 75 72 71 70 68 73 77 77 78 79 74 67 64 64 69
111 123 127 114 112 105 101 94 101 107 106 103 97 97 103 104 101 101 97 89 88 87 86 88 87 89 84 81 79 74 71 70 71 72 74 76 82 80 76 69 66 72 71
106 123 131 111 112 107 103 98 93 97 100 103 102 96 97 103 107 109 106 99 93 90 89 91 87 89 88 86 83 79 74 72 70 63 63 76 88 85 81 75 69 70 72
107 121 126 114 114 111 107 102 100 96 96 96 100 97 93 99 103 106 105 103 99 96 91 88 86 88 90 89 88 84 76 74 61 46 60 77 85 91 87 81 74 71 71
102 111 117 114 118 117 112 106 102 99 96 94 93 98 94 99 107 104 103 106 103 100 96 90 84 86 91 90 89 85 73 64 43 31 45 68 77 94 91 85 78 73 72
96 107 114 113 116 118 115 111 106 102 96 93 85 83 91 99 109 107 101 101 105 104 99 97 92 87 89 92 88 80 63 40 29 39 54 63 76 94 94 88 82 78 77
89 103 116 112 113 113 115 113 108 106 101 93 84 76 83 99 102 113 108 104 99 104 106 105 101 95 88 86 86 75 37 8 41 47 54 62 82 96 96 91 86 84 82
83 95 114 111 113 117 119 119 110 101 96 89 86 79 77 83 97 102 107 107 104 98 109 115 111 105 94 84 67 46 13 8 34 53 65 77 91 101 101 98 93 87 88
83 88 101 118 120 121 122 125 120 108 96 90 81 78 71 73 78 78 85 101 105 105 99 107 114 111 109 94 67 29 12 4 25 46 68 79 93 105 105 101 102 96 92
87 92 99 105 105 131 139 130 116 107 101 95 84 76 72 70 75 76 69 81 97 96 97 92 108 115 111 98 63 13 358 359 28 63 68 98 95 107 117 116 115 105 91
94 87 94 108 102 117 142 129 116 109 105 100 97 93 90 85 94 83 83 84 91 86 85 83 77 92 97 88 48 341 334 333 91 86 77 106 107 107 117 123 124 134 120
132 115 100 125 112 114 140 130 134 135 123 117 113 119 112 75 77 78 98 98 87 84 87 78 54 46 86 141 287 292 247 254 114 104 105 123 126 134 144 151 169 175 168
147 114 91 128 121 127 133 130 126 123 122 128 111 103 92 83 80 83 91 102 102 102 91 76 61 6 318 312 146 178 235 279 131 109 113 133 145 191 220 234 245 232 211
147 144 117 85 111 129 126 124 129 121 122 121 113 106 106 99 88 102 106 110 117 112 105 85 73 339 319 347 339 326 291 294 232 129 132 137 165 207 229 231 242 241 241
148 142 144 130 121 143 140 131 127 129 128 120 111 114 106 111 113 106 127 132 133 117 124 131 147 103 310 322 321 314 294 281 286 193 166 164 187 213 226 230 242 244 246
159 155 146 144 142 139 144 149 149 141 136 135 142 150 133 123 119 117 119 127 113 125 133 154 169 152 199 235 295 295 274 259 273 250 203 190 197 213 224 227 235 244 249
111 124 133 142 134 151 152 160 153 150 151 150 153 152 150 137 133 141 143 138 117 90 89 73 72 83 79 215 261 266 265 254 249 264 248 199 193 212 225 228 230 241 258
98 102 106 108 121 125 135 168 163 162 148 151 150 156 161 156 137 140 137 151 138 94 73 45 28 68 353 298 294 283 260 251 249 256 262 241 199 189 219 227 228 243 262
110 114 113 110 112 90 114 182 169 146 143 143 140 154 170 164 143 142 158 151 146 118 103 31 9 41 330 317 297 285 274 251 242 251 254 258 237 193 197 227 235 252 261
98 120 122 120 115 102 91 109 147 143 150 147 157 157 161 163 154 155 149 157 143 125 132 127 341 337 283 298 304 309 284 261 243 234 247 256 255 232 202 231 228 245 246
76 104 132 134 128 116 117 123 161 181 181 183 158 145 170 164 164 165 148 162 152 157 174 161 137 358 329 359 4 321 293 261 239 246 231 230 247 250 237 252 254 248 235
58 144 142 144 142 137 115 132 219 175 219 193 153 160 201 163 159 167 166 175 168 157 166 166 137 150 291 34 55 342 309 308 307 282 279 231 243 267 254 243 249 245 243
353 169 154 147 138 133 104 94 64 76 50 97 201 230 259 186 157 168 175 162 159 162 179 186 179 183 217 272 263 148 188 242 307 279 252 248 269 266 265 262 253 253 249
346 125 132 143 137 143 136 144 158 184 205 257 264 270 270 199 180 173 175 169 173 179 186 199 198 241 176 221 289 298 269 259 224 290 293 277 272 276 270 261 247 251 254
24 54 138 135 134 135 158 171 191 216 239 256 268 234 243 223 194 179 184 189 191 193 195 191 197 223 220 211 235 285 295 307 283 237 275 290 292 271 270 270 257 249 245
37 31 37 132 143 147 167 175 188 206 223 205 224 228 234 221 206 197 211 204 203 201 205 203 202 214 231 239 247 246 239 241 258 258 265 279 279 278 267 262 249 248 249